Wetbulb
60.67 58.89 58.39 57.99 57.83 57.57 57.47 54.56 55.24 57.93 58.15 57.73 56.72 56.54 56.72 57.37 59.28 60.19 59.65 62.07 64.16 64.20 63.38 63.87 64.98 65.94 66.08 65.93 66.12 65.13 64.57 64.06 63.24 62.32 62.18 62.10 62.07 62.03 63.04 63.26 62.87 63.01 62.30
59.72 58.05 57.24 57.21 55.85 56.38 55.31 54.83 56.63 57.22 56.43 56.40 55.49 56.11 56.70 57.14 57.54 57.89 57.83 59.42 62.73 63.08 63.82 63.08 62.80 63.01 63.46 64.67 64.48 64.72 64.40 63.73 63.70 62.61 61.85 61.62 61.46 61.88 62.90 62.48 62.16 62.52 62.18
58.68 57.65 56.97 55.99 55.73 56.18 55.32 55.64 55.25 55.09 54.74 56.07 54.66 55.96 56.56 56.30 57.55 56.88 56.28 56.67 59.02 62.43 63.67 62.82 62.65 62.67 62.17 62.45 62.00 62.49 62.49 62.17 62.37 62.40 61.41 61.16 61.41 61.34 63.53 61.95 61.81 62.26 61.30
58.82 58.08 57.12 55.98 56.15 56.09 55.79 55.42 54.86 53.72 54.05 54.72 53.12 54.75 55.22 56.10 56.12 55.70 55.18 55.27 57.24 58.51 60.83 62.43 61.86 61.69 62.06 61.58 61.46 60.85 61.33 60.89 60.99 61.23 61.07 60.59 61.30 60.89 63.64 62.42 61.59 63.44 61.73
59.04 58.89 57.36 56.25 56.85 56.33 55.88 55.89 53.56 54.34 53.49 52.22 53.26 53.01 53.93 54.85 55.55 56.78 54.39 54.17 55.60 56.64 55.78 60.16 60.55 60.82 62.32 61.18 61.04 60.98 60.58 60.73 61.53 60.94 60.51 60.42 61.07 62.61 62.86 62.30 61.14 61.80 62.36
59.21 58.84 57.59 56.85 57.59 56.91 55.78 55.01 54.52 53.74 53.23 52.76 54.66 53.06 52.72 53.35 54.82 54.06 54.12 55.48 54.52 54.89 55.05 55.07 54.73 56.55 61.01 61.53 60.38 60.23 60.79 60.71 60.72 61.91 61.23 60.40 60.23 61.78 60.69 60.35 61.21 60.02 62.20
58.81 58.52 57.93 57.31 57.77 57.20 56.52 56.05 55.12 54.11 53.51 54.20 53.22 53.10 53.57 53.69 53.71 53.94 54.52 54.36 54.76 55.09 54.93 54.27 54.09 54.86 56.23 60.20 60.69 59.39 59.93 59.82 59.75 60.16 60.75 62.25 62.26 61.65 60.24 59.72 59.94 59.97 59.81
58.69 58.41 57.92 57.51 57.91 57.29 56.48 56.30 55.83 54.07 54.15 54.74 53.03 52.25 50.22 52.19 53.72 54.23 54.12 54.64 54.08 54.71 54.76 55.15 55.00 54.50 54.55 54.21 54.80 59.60 59.22 58.77 59.95 59.34 59.10 59.44 59.58 61.07 61.50 60.16 59.30 58.97 59.58
58.66 58.57 58.45 57.95 57.72 58.07 56.87 56.56 56.20 55.10 54.37 54.33 54.96 53.31 49.51 48.77 51.28 53.47 53.51 53.93 53.72 53.62 53.66 54.31 54.59 54.91 54.37 53.99 55.28 55.29 57.94 59.17 58.98 59.39 58.94 58.54 58.12 58.57 59.99 60.21 58.90 58.78 58.02
58.73 58.49 58.45 58.03 57.87 58.28 57.10 56.97 57.25 55.68 55.23 54.08 54.30 55.13 54.24 53.11 50.00 49.28 52.67 53.25 53.46 53.76 53.58 53.69 54.07 54.47 54.09 54.18 54.42 54.05 55.54 57.25 56.77 58.59 59.16 58.68 57.61 57.48 58.49 57.95 58.38 57.36 57.49
59.41 58.91 58.76 57.62 57.20 57.96 57.68 57.51 57.05 56.47 55.99 55.33 54.55 53.57 52.95 52.99 52.38 50.38 48.53 50.84 52.75 53.47 54.05 53.98 53.98 53.98 54.51 54.17 53.73 54.44 56.52 57.77 57.77 57.99 58.99 59.73 60.16 60.70 59.67 58.67 57.93 57.78 57.64
58.62 58.88 59.08 58.56 58.04 57.80 57.50 57.65 57.77 57.04 56.59 56.17 55.50 54.50 53.38 52.30 51.86 51.31 49.61 49.30 50.24 52.50 53.76 54.37 54.34 54.22 54.13 54.22 54.57 54.32 55.72 57.91 58.96 59.03 59.34 59.50 59.36 59.17 59.32 60.81 59.82 58.17 57.06
57.58 58.17 58.87 58.43 58.13 58.26 58.92 58.78 58.11 57.73 56.95 56.42 55.57 54.72 54.81 55.15 54.74 53.54 52.01 50.23 50.21 51.72 52.50 53.49 54.55 54.76 55.18 54.38 54.41 52.93 54.08 57.02 58.49 59.10 59.87 60.50 60.51 59.87 58.92 59.05 59.88 60.57 58.68
58.12 58.95 59.03 59.02 58.42 58.19 58.95 58.85 58.33 58.06 57.36 56.57 55.89 55.93 55.53 56.26 56.69 55.45 53.59 51.71 49.30 50.16 50.88 52.13 53.41 54.06 54.65 54.65 54.17 52.67 53.99 54.81 56.88 58.59 59.30 59.85 60.61 59.87 59.35 59.03 58.80 58.95 60.14
58.81 58.09 58.98 58.84 58.36 58.48 58.54 58.60 58.09 57.28 57.37 56.91 56.16 56.13 56.04 56.09 56.50 56.96 55.73 54.50 52.17 48.52 49.36 51.63 51.78 53.68 54.15 54.25 53.89 53.66 53.29 53.45 55.41 56.55 57.42 57.49 57.40 57.72 58.24 58.72 58.74 58.30 58.26
59.17 58.09 57.97 58.45 58.40 58.33 58.42 58.30 57.62 57.33 56.94 56.93 56.70 55.94 55.66 55.84 55.91 56.24 56.07 55.47 54.27 51.83 49.19 51.90 51.94 52.84 53.57 54.52 53.67 53.56 53.65 51.81 53.68 55.82 56.48 55.82 55.70 55.95 56.33 56.77 57.25 57.62 57.47
59.32 58.44 58.07 57.85 58.10 57.90 57.91 57.81 57.45 57.19 56.93 56.77 57.07 56.51 55.85 56.15 55.70 55.49 55.45 55.14 54.24 53.40 51.72 52.25 53.07 53.24 52.36 52.56 52.85 52.38 52.64 52.57 52.15 53.20 55.35 55.67 55.29 55.09 55.22 55.32 55.55 56.10 56.65
60.15 59.24 58.73 58.19 57.96 57.98 58.04 57.46 56.84 57.24 56.71 56.32 57.02 56.76 56.68 56.82 55.63 55.24 54.80 54.40 54.10 53.50 52.78 51.50 52.00 52.42 51.90 51.91 52.42 52.14 52.93 53.24 52.24 52.84 53.92 54.27 54.47 54.62 54.66 54.52 54.29 54.38 54.42
61.19 60.52 59.89 59.26 58.94 58.87 58.71 58.46 57.70 57.59 57.42 57.48 57.67 57.46 57.09 56.22 54.81 54.22 54.15 53.90 53.83 54.56 53.04 51.91 51.77 51.66 51.63 50.99 50.89 50.88 51.05 51.10 52.47 51.23 52.85 53.17 53.90 54.18 54.08 53.93 53.57 53.23 52.78
60.93 60.99 60.88 60.61 60.48 60.71 60.49 59.99 59.24 58.99 58.71 58.39 58.24 58.35 57.78 57.03 56.15 55.05 54.66 54.31 53.99 53.01 51.88 51.44 51.01 51.00 50.36 50.47 50.40 50.04 49.93 50.43 51.69 52.35 52.08 51.73 51.80 51.74 52.40 52.87 52.03 50.66 50.43
55.32 60.30 59.87 60.31 60.23 60.57 60.39 60.25 60.00 60.01 59.76 58.81 57.07 57.03 58.27 55.80 52.08 54.72 56.12 54.62 53.89 52.94 51.49 51.56 50.53 48.99 49.01 48.79 49.36 49.70 49.56 50.46 51.37 51.31 49.53 50.01 49.65 49.42 49.88 50.80 49.26 48.87 49.67
42.72 51.42 55.79 55.49 54.47 53.98 51.05 52.83 56.94 58.05 57.10 56.92 56.15 56.04 56.02 51.90 51.85 50.81 52.10 52.23 54.33 53.80 52.20 50.69 49.63 48.94 49.29 49.43 49.31 49.54 50.18 49.66 48.33 50.49 48.16 48.64 48.64 49.24 49.96 49.93 50.73 50.51 50.36
38.17 41.44 47.28 51.53 50.05 49.57 49.50 50.96 51.71 55.32 55.34 55.36 54.38 53.33 52.86 54.67 52.91 54.13 50.55 49.80 50.30 50.88 52.30 53.17 50.59 50.28 49.97 50.41 50.41 48.89 48.50 49.41 49.23 48.76 48.03 46.71 47.59 47.82 50.07 49.93 50.07 50.09 50.16
34.26 37.17 41.15 46.41 46.83 46.90 46.96 47.89 49.67 53.12 53.04 53.97 54.20 53.93 53.18 51.77 51.72 52.58 52.17 50.92 51.90 51.39 51.55 52.19 52.77 52.59 52.10 51.68 51.13 50.22 49.06 48.17 47.59 47.53 48.30 47.48 46.00 47.01 47.91 48.39 49.11 49.49 49.54
33.19 34.40 38.69 43.01 44.22 44.27 45.22 46.37 48.46 50.63 51.95 52.59 53.44 53.57 53.01 52.21 49.97 49.53 52.05 51.87 53.03 52.38 50.58 49.63 50.26 50.11 50.15 50.24 50.79 49.25 48.71 48.89 48.11 49.03 49.01 48.85 48.47 45.59 44.28 46.76 46.81 47.12 47.94
32.02 34.14 37.56 41.45 43.22 42.71 43.92 44.88 46.26 48.34 48.96 50.25 51.87 45.96 44.64 46.83 47.66 49.02 51.42 50.90 50.39 51.11 50.50 49.90 49.29 48.28 47.75 48.86 47.71 50.44 49.66 48.46 45.71 41.34 48.50 47.70 46.40 45.93 43.21 43.82 42.02 43.08 43.48
MSLP
1020.24 1020.84 1021.39 1021.78 1022.09 1022.39 1022.69 1023.26 1023.39 1023.71 1024.19 1024.62 1024.95 1025.12 1025.40 1025.55 1025.54 1025.73 1025.84 1025.75 1025.73 1025.79 1025.83 1025.74 1025.79 1025.82 1025.84 1025.84 1025.96 1025.99 1026.00 1025.98 1026.03 1025.98 1025.94 1025.86 1025.61 1025.49 1025.47 1025.32 1025.06 1025.00 1024.67
1020.36 1020.83 1021.49 1021.86 1022.29 1022.51 1022.90 1023.23 1023.51 1023.96 1024.53 1024.88 1025.30 1025.46 1025.76 1025.94 1026.07 1026.21 1026.27 1026.26 1026.21 1026.15 1026.10 1026.11 1026.22 1026.29 1026.26 1026.26 1026.27 1026.40 1026.41 1026.40 1026.38 1026.41 1026.38 1026.23 1026.14 1026.03 1025.91 1025.86 1025.72 1025.55 1025.31
1020.23 1020.89 1021.51 1022.00 1022.32 1022.58 1023.08 1023.22 1023.78 1024.32 1024.84 1025.13 1025.57 1025.79 1026.00 1026.24 1026.41 1026.60 1026.69 1026.80 1026.72 1026.66 1026.54 1026.63 1026.59 1026.67 1026.75 1026.75 1026.74 1026.84 1026.97 1026.92 1026.82 1026.77 1026.79 1026.68 1026.64 1026.39 1026.27 1026.18 1026.19 1025.95 1025.74
1020.24 1020.87 1021.36 1021.93 1022.33 1022.69 1022.91 1023.43 1024.05 1024.68 1025.17 1025.56 1025.96 1026.14 1026.34 1026.47 1026.75 1026.91 1027.03 1027.12 1027.13 1027.16 1027.19 1027.18 1027.15 1027.06 1027.04 1027.21 1027.32 1027.41 1027.40 1027.29 1027.16 1027.17 1027.14 1027.11 1027.03 1026.81 1026.72 1026.57 1026.61 1026.47 1026.32
1020.06 1020.66 1021.26 1021.86 1022.32 1022.71 1023.06 1023.46 1024.27 1024.56 1025.36 1025.83 1026.18 1026.48 1026.61 1026.89 1026.97 1027.07 1027.31 1027.40 1027.44 1027.51 1027.59 1027.57 1027.60 1027.54 1027.43 1027.46 1027.60 1027.63 1027.67 1027.57 1027.48 1027.42 1027.47 1027.40 1027.26 1027.16 1027.19 1027.11 1026.97 1026.96 1026.75
1019.88 1020.43 1021.12 1021.74 1022.14 1022.66 1023.29 1023.69 1024.26 1024.78 1025.34 1025.83 1026.36 1026.78 1026.93 1027.04 1027.13 1027.30 1027.41 1027.47 1027.66 1027.72 1027.82 1027.94 1028.04 1027.96 1027.85 1027.79 1027.86 1027.93 1027.93 1027.84 1027.75 1027.65 1027.67 1027.74 1027.58 1027.54 1027.61 1027.62 1027.58 1027.42 1027.34
1019.75 1020.28 1020.93 1021.50 1021.93 1022.56 1023.08 1023.48 1024.22 1024.85 1025.59 1025.90 1026.52 1027.13 1027.38 1027.36 1027.45 1027.46 1027.50 1027.58 1027.70 1027.87 1027.99 1028.13 1028.23 1028.29 1028.26 1028.12 1028.12 1028.20 1028.13 1028.07 1027.98 1028.04 1027.92 1027.94 1027.92 1027.79 1027.79 1028.04 1027.98 1027.96 1027.83
1019.43 1019.97 1020.59 1021.25 1021.67 1022.39 1023.01 1023.51 1024.06 1024.90 1025.43 1025.72 1026.36 1026.88 1027.73 1028.03 1027.77 1027.69 1027.63 1027.62 1027.72 1027.86 1028.01 1028.11 1028.22 1028.37 1028.45 1028.48 1028.43 1028.42 1028.38 1028.25 1028.16 1028.26 1028.29 1028.33 1028.23 1028.18 1028.15 1028.07 1028.23 1028.43 1028.26
1019.07 1019.59 1020.17 1020.93 1021.54 1021.97 1022.77 1023.26 1023.81 1024.39 1025.25 1025.74 1025.73 1026.13 1027.32 1027.55 1027.77 1027.87 1027.81 1027.78 1027.76 1027.93 1028.02 1028.10 1028.14 1028.24 1028.38 1028.53 1028.51 1028.58 1028.57 1028.50 1028.41 1028.41 1028.43 1028.49 1028.54 1028.49 1028.47 1028.45 1028.47 1028.67 1028.69
1018.73 1019.33 1019.93 1020.65 1021.21 1021.74 1022.51 1022.94 1023.39 1024.02 1024.62 1025.25 1025.76 1025.76 1025.86 1026.17 1027.20 1028.03 1027.96 1027.85 1027.84 1028.00 1027.90 1028.08 1028.12 1028.10 1028.18 1028.42 1028.48 1028.63 1028.61 1028.57 1028.56 1028.54 1028.50 1028.58 1028.62 1028.57 1028.44 1028.54 1028.67 1028.77 1028.90
1018.38 1019.06 1019.54 1020.24 1020.90 1021.45 1022.09 1022.70 1023.17 1023.74 1024.29 1024.98 1025.32 1025.72 1025.95 1026.24 1026.51 1027.13 1027.96 1027.98 1027.87 1027.84 1027.62 1027.83 1027.95 1027.98 1027.98 1028.16 1028.30 1028.42 1028.52 1028.56 1028.50 1028.47 1028.48 1028.53 1028.55 1028.55 1028.50 1028.51 1028.48 1028.55 1028.67
1018.18 1018.69 1019.29 1019.78 1020.36 1020.94 1021.63 1022.23 1022.71 1023.31 1023.89 1024.39 1024.84 1025.15 1025.44 1025.81 1026.40 1026.78 1027.52 1027.86 1027.88 1027.75 1027.54 1027.51 1027.69 1027.81 1027.79 1027.82 1027.92 1028.08 1028.27 1028.47 1028.48 1028.43 1028.42 1028.46 1028.56 1028.55 1028.54 1028.50 1028.46 1028.59 1028.66
1017.76 1018.19 1018.64 1019.44 1019.93 1020.40 1020.97 1021.58 1022.26 1022.82 1023.39 1023.97 1024.42 1024.86 1025.01 1025.23 1025.52 1026.19 1026.70 1027.57 1027.80 1027.80 1027.66 1027.28 1027.31 1027.44 1027.61 1027.61 1027.68 1027.85 1028.01 1028.23 1028.37 1028.40 1028.44 1028.37 1028.48 1028.62 1028.62 1028.63 1028.59 1028.61 1028.65
1016.84 1017.42 1018.01 1018.79 1019.55 1020.17 1020.70 1021.21 1021.83 1022.45 1022.91 1023.52 1024.01 1024.37 1024.74 1024.96 1025.23 1025.51 1026.21 1026.93 1027.78 1027.93 1027.78 1027.43 1027.09 1027.20 1027.35 1027.42 1027.65 1027.83 1027.90 1028.04 1028.17 1028.26 1028.32 1028.40 1028.40 1028.61 1028.63 1028.64 1028.62 1028.61 1028.59
1016.40 1017.19 1017.66 1018.46 1019.11 1019.71 1020.31 1020.86 1021.47 1022.00 1022.60 1023.20 1023.65 1024.03 1024.38 1024.72 1024.96 1025.19 1025.61 1026.10 1026.81 1027.84 1027.96 1027.38 1027.26 1026.91 1027.13 1027.28 1027.44 1027.69 1027.85 1027.90 1027.94 1028.04 1028.15 1028.23 1028.28 1028.39 1028.54 1028.56 1028.58 1028.59 1028.57
1015.73 1016.65 1017.40 1018.06 1018.72 1019.26 1019.85 1020.50 1021.20 1021.71 1022.29 1022.89 1023.42 1023.85 1024.19 1024.43 1024.79 1025.10 1025.39 1025.82 1026.20 1026.94 1027.54 1027.33 1027.13 1026.94 1027.01 1027.12 1027.27 1027.59 1027.71 1027.78 1027.77 1027.81 1027.90 1027.98 1028.01 1028.05 1028.16 1028.31 1028.40 1028.43 1028.49
1014.98 1015.91 1016.78 1017.59 1018.28 1018.87 1019.48 1020.07 1020.63 1021.27 1021.96 1022.53 1023.04 1023.47 1023.86 1024.19 1024.56 1024.90 1025.29 1025.68 1026.10 1026.51 1027.07 1027.16 1027.03 1026.85 1027.02 1027.17 1027.28 1027.51 1027.57 1027.61 1027.56 1027.60 1027.66 1027.72 1027.74 1027.74 1027.86 1028.00 1028.04 1028.10 1028.16
1014.49 1015.21 1016.22 1017.06 1017.74 1018.43 1019.00 1019.57 1020.11 1020.71 1021.36 1022.03 1022.51 1023.05 1023.41 1023.88 1024.24 1024.53 1024.98 1025.42 1025.86 1026.20 1026.57 1027.00 1027.13 1026.98 1027.02 1027.03 1027.10 1027.32 1027.33 1027.26 1027.30 1027.32 1027.33 1027.38 1027.45 1027.44 1027.52 1027.61 1027.64 1027.74 1027.80
1013.52 1014.93 1015.57 1016.10 1017.05 1017.63 1018.48 1019.01 1019.51 1020.12 1020.79 1021.29 1021.80 1022.34 1022.75 1023.30 1023.83 1024.19 1024.51 1024.95 1025.45 1025.89 1026.28 1026.68 1026.87 1026.91 1026.92 1027.04 1027.15 1027.24 1027.25 1027.24 1027.10 1027.03 1027.05 1027.03 1027.10 1027.12 1027.21 1027.28 1027.30 1027.36 1027.36
1012.26 1014.16 1015.12 1015.36 1016.16 1016.93 1017.49 1018.21 1019.02 1019.65 1020.21 1020.77 1021.30 1021.73 1022.12 1022.58 1023.14 1023.63 1023.97 1024.33 1024.87 1025.49 1025.99 1026.46 1026.66 1026.87 1027.02 1027.12 1027.19 1027.27 1027.41 1027.25 1027.12 1026.98 1026.75 1026.78 1026.88 1026.88 1026.89 1026.91 1026.90 1026.88 1026.86
1014.00 1014.03 1014.60 1014.87 1015.63 1016.16 1016.88 1017.81 1018.43 1018.97 1019.61 1020.19 1020.79 1021.36 1021.59 1021.87 1022.38 1022.66 1023.24 1023.76 1024.34 1025.02 1025.57 1026.03 1026.43 1026.71 1026.88 1027.08 1027.04 1026.96 1027.22 1027.11 1026.94 1026.90 1026.83 1026.73 1026.69 1026.61 1026.53 1026.49 1026.46 1026.36 1026.27
1015.13 1014.72 1014.68 1014.90 1015.53 1015.99 1016.37 1017.17 1017.81 1018.37 1018.93 1019.64 1020.54 1021.18 1021.52 1021.89 1022.28 1022.76 1022.84 1023.11 1023.57 1024.24 1024.81 1025.32 1025.77 1026.15 1026.27 1026.40 1026.48 1026.75 1027.03 1027.14 1026.93 1026.56 1026.81 1026.68 1026.68 1026.44 1026.06 1025.95 1025.77 1025.76 1025.66
1016.17 1016.60 1016.06 1015.40 1015.29 1016.10 1016.24 1016.74 1016.96 1017.94 1018.63 1019.19 1020.11 1020.78 1021.44 1021.79 1022.05 1022.50 1022.88 1023.23 1023.53 1023.64 1023.64 1024.24 1024.90 1025.20 1025.45 1025.56 1025.84 1026.25 1026.61 1026.75 1026.62 1026.47 1026.65 1026.66 1026.33 1026.15 1025.49 1025.42 1025.32 1025.21 1025.06
1018.12 1018.47 1017.72 1017.36 1016.72 1016.48 1015.94 1016.39 1017.39 1018.25 1018.72 1019.32 1019.70 1020.25 1021.02 1021.66 1021.95 1022.29 1022.79 1023.16 1023.36 1023.53 1023.68 1023.81 1024.06 1024.23 1024.46 1024.76 1025.06 1025.40 1025.91 1026.22 1026.47 1026.47 1026.55 1026.63 1026.25 1026.03 1025.50 1025.17 1024.80 1024.62 1024.57
1019.45 1020.35 1018.51 1018.64 1017.43 1017.24 1017.00 1016.84 1017.33 1017.99 1018.81 1019.37 1019.95 1020.57 1021.11 1021.60 1021.74 1022.02 1022.61 1022.96 1022.99 1023.15 1023.18 1023.43 1023.56 1023.81 1024.08 1024.37 1024.73 1025.40 1025.81 1026.20 1026.33 1026.20 1026.16 1026.36 1026.02 1026.04 1025.75 1025.00 1024.42 1024.24 1024.21
1020.81 1020.26 1019.78 1019.69 1019.34 1017.96 1017.33 1017.24 1017.62 1018.36 1019.08 1019.54 1020.39 1021.10 1021.53 1021.77 1021.85 1021.75 1022.34 1022.56 1022.74 1022.77 1023.01 1023.27 1023.58 1023.79 1023.99 1024.14 1024.43 1024.64 1025.11 1025.64 1025.94 1026.13 1025.51 1025.96 1025.83 1025.88 1025.79 1024.89 1024.54 1024.20 1024.07
Wind_Speed
8 6 6 4 4 4 4 5 6 8 9 8 5 7 6 6 6 4 3 12 12 11 11 11 13 14 13 14 15 15 14 16 16 16 16 15 16 16 16 16 17 17 17
8 7 6 6 4 4 4 5 9 8 7 7 6 7 6 5 6 6 4 5 10 11 12 13 11 10 9 11 13 16 16 16 15 16 15 14 14 14 14 17 17 16 17
10 7 6 5 4 5 6 8 7 7 6 5 6 6 5 6 5 6 5 4 5 9 14 14 11 13 10 9 8 12 13 13 14 14 14 13 13 12 13 16 15 16 16
10 7 5 5 5 4 6 7 7 6 6 6 5 5 4 4 5 5 4 4 4 4 7 10 11 9 13 10 10 9 10 11 12 11 12 11 10 11 16 16 15 15 16
10 9 6 5 7 6 6 7 3 7 7 4 5 4 4 4 5 4 5 5 4 4 3 7 8 8 8 10 10 10 10 10 9 11 12 10 8 12 16 15 13 15 14
11 10 7 8 8 7 6 5 7 4 5 5 6 5 4 3 3 4 5 3 3 4 3 4 3 2 7 7 9 9 10 9 10 11 11 10 10 11 14 12 14 13 15
11 11 8 9 8 9 9 9 6 7 3 4 4 4 4 3 3 3 3 3 4 4 3 3 2 1 2 5 5 6 8 8 9 9 11 13 9 9 10 11 12 12 11
12 11 11 9 10 9 10 9 8 4 3 4 5 3 3 2 2 1 2 3 4 3 3 4 4 3 2 1 0 3 3 4 6 7 6 8 8 11 10 10 12 10 11
12 11 13 10 10 10 9 8 7 7 7 2 6 4 3 4 3 0 1 2 4 2 2 3 4 5 4 3 1 1 2 2 2 4 5 6 5 7 8 9 10 10 8
11 11 12 11 11 9 10 8 7 5 5 4 2 1 1 5 4 2 1 1 2 3 4 3 3 4 4 3 5 5 5 3 2 1 2 1 2 1 3 4 7 6 6
12 12 13 12 11 8 9 9 8 8 4 4 3 2 2 3 2 4 2 2 1 3 3 4 4 3 4 5 4 5 6 6 5 3 3 3 3 3 3 2 1 4 8
9 12 12 12 11 10 11 9 8 9 7 5 3 3 4 4 3 3 3 1 2 3 3 3 3 4 4 4 5 7 7 8 6 5 5 4 4 4 4 5 3 3 2
9 13 14 12 10 11 11 10 10 9 9 7 7 4 3 3 4 3 4 2 2 2 1 2 3 4 3 3 4 8 7 7 7 7 7 6 5 2 4 5 4 4 5
12 13 13 13 12 10 10 9 7 7 7 6 8 5 4 4 3 3 4 5 2 0 1 4 2 4 4 3 4 5 3 6 7 7 8 8 6 5 5 5 5 5 6
11 12 13 13 12 12 12 11 8 9 7 5 6 6 4 4 3 3 4 3 5 3 4 3 2 3 3 3 4 3 3 5 6 7 8 8 8 8 8 8 7 6 6
14 14 14 14 13 12 12 12 8 7 9 5 4 6 4 3 4 3 3 3 3 4 2 4 4 3 3 3 4 4 4 4 6 7 8 8 7 8 9 9 9 9 8
16 15 15 14 14 13 12 12 10 9 10 8 6 7 7 6 4 4 3 2 3 3 4 2 2 2 3 4 3 3 3 4 3 6 7 7 8 8 8 9 9 10 10
17 17 16 14 14 14 13 13 12 11 12 10 9 8 8 5 6 5 4 5 4 4 4 5 3 3 4 4 3 3 4 4 4 5 7 7 7 8 7 8 9 9 10
18 16 17 17 15 15 14 13 13 12 12 11 11 10 9 8 6 4 5 5 4 3 3 3 4 2 3 1 2 2 3 3 3 6 7 7 7 7 7 8 8 8 9
15 16 17 17 17 16 15 14 13 12 11 10 10 10 9 9 8 8 6 6 5 4 4 3 3 2 2 2 1 3 3 2 2 2 4 5 4 6 6 9 8 8 9
3 15 13 14 14 14 11 15 14 14 13 10 8 7 7 7 10 9 6 6 6 5 3 4 3 2 2 2 4 2 4 1 2 3 1 2 1 2 3 6 7 9 11
12 7 13 14 12 7 13 13 14 11 10 11 10 6 5 5 6 7 9 9 9 7 6 5 4 4 5 4 3 3 3 2 2 3 3 3 1 3 4 4 9 11 11
12 14 10 7 12 9 14 12 13 6 8 8 8 8 6 4 5 4 6 5 7 9 7 7 5 6 5 6 5 3 4 3 4 2 3 3 3 4 5 4 9 12 12
13 11 10 7 5 8 15 13 12 6 6 7 7 8 7 6 5 4 4 5 6 6 6 5 6 6 5 5 5 5 5 3 1 2 2 3 0 4 4 5 10 13 11
9 10 9 8 7 8 11 12 10 6 5 6 5 4 4 5 6 7 5 6 5 5 5 8 9 7 9 9 6 4 3 2 2 3 3 3 2 3 3 6 5 5 8
10 8 12 11 12 9 17 13 10 5 5 5 4 9 14 8 3 5 6 5 5 6 5 4 3 4 6 6 9 6 4 3 3 2 3 3 2 2 4 3 3 3 3
Wind_Direction
142 134 137 130 126 116 120 101 115 119 115 116 106 109 98 86 72 76 64 81 78 94 88 78 80 80 81 79 88 86 77 81 75 65 64 56 63 60 60 57 54 59 52
143 140 139 145 129 136 127 130 123 123 121 124 113 111 105 95 89 83 72 61 69 83 95 99 85 73 68 80 75 69 70 66 70 70 60 61 55 63 68 59 55 59 50
143 143 147 141 144 131 129 105 101 106 106 111 110 107 107 106 102 96 87 75 56 64 77 75 77 88 87 84 80 58 60 61 61 56 62 58 59 58 71 77 56 56 59
145 153 149 139 138 137 119 117 122 111 118 127 118 122 115 113 112 112 100 94 86 67 64 78 81 85 95 83 72 65 68 66 62 57 67 64 68 64 68 72 66 48 61
153 153 160 141 139 133 124 131 107 125 126 118 121 123 128 124 134 125 125 115 114 111 96 94 89 68 48 86 80 75 76 70 55 76 73 80 54 78 71 62 62 49 59
162 156 156 151 144 135 131 122 129 113 133 140 127 109 114 134 128 143 155 143 137 131 117 103 72 64 81 78 84 78 89 76 48 58 82 87 72 71 61 51 53 57 46
162 160 156 151 144 147 151 147 131 126 96 116 99 71 51 89 129 142 142 146 164 169 150 148 135 78 43 81 79 91 89 85 64 54 48 54 65 64 94 68 56 55 43
161 158 156 157 153 149 152 154 143 127 116 162 139 112 108 40 39 192 160 171 167 159 174 189 179 168 159 108 126 90 81 77 78 67 66 43 39 58 63 78 74 50 48
159 154 157 157 155 152 160 160 153 141 158 181 159 134 121 179 142 320 214 204 174 175 181 177 184 186 184 191 212 215 169 100 76 81 78 59 56 65 63 70 63 60 60
156 154 154 158 157 155 162 164 158 152 142 157 120 114 73 137 154 133 318 223 194 209 195 205 196 185 175 191 201 216 216 194 201 209 166 95 100 229 48 98 72 72 44
160 165 163 161 161 161 164 164 168 159 150 141 142 153 117 74 91 126 155 245 318 233 205 197 199 208 193 189 203 224 221 216 213 218 245 261 291 311 304 269 218 135 106
167 169 169 171 168 165 166 169 169 168 168 148 156 160 159 155 167 135 122 159 177 251 220 209 198 211 215 200 204 212 212 217 227 234 249 263 281 304 316 322 257 164 122
175 178 172 174 176 174 172 169 174 172 170 173 171 180 161 158 135 132 117 146 150 259 267 240 217 216 221 211 211 207 214 214 224 241 255 260 271 290 295 303 316 305 220
182 175 176 175 175 170 172 170 173 176 168 169 175 176 171 166 148 143 144 142 84 7 326 234 241 212 216 203 227 227 230 222 217 237 253 266 290 281 271 280 288 301 319
176 174 176 174 170 172 173 172 173 170 166 171 180 173 165 175 164 146 140 147 145 168 235 269 222 218 200 179 206 186 213 237 222 232 244 255 256 263 265 266 273 281 286
174 171 175 176 175 174 172 172 174 171 172 177 174 179 184 169 171 157 149 150 142 149 188 205 239 228 189 191 206 201 227 234 243 244 243 244 249 252 255 257 261 265 268
174 174 179 177 179 180 178 179 178 173 182 180 176 185 192 171 179 173 156 153 161 152 175 270 240 239 202 190 201 225 242 238 249 251 253 249 247 249 255 263 257 254 255
175 175 178 182 185 186 182 182 179 184 184 181 185 185 195 181 191 180 171 183 182 185 153 208 216 219 213 215 203 214 239 237 240 245 249 254 248 250 252 261 261 261 255
170 179 181 183 188 188 186 187 187 183 188 189 185 189 197 176 190 177 177 182 188 169 179 164 229 194 214 156 217 264 259 268 257 257 265 263 260 252 263 266 269 267 260
161 186 187 186 189 189 188 186 188 186 187 188 186 189 189 184 191 188 182 190 187 179 164 179 205 216 200 208 185 210 263 225 279 286 259 265 285 274 267 271 270 259 259
251 184 184 185 183 182 182 184 184 185 182 176 167 175 185 183 191 185 175 190 176 184 162 179 176 155 196 184 200 197 219 230 265 227 298 294 293 286 271 269 265 257 258
18 350 176 160 146 143 151 159 174 170 161 160 158 156 144 173 193 209 194 181 180 184 193 174 180 186 211 201 183 193 188 209 258 180 165 275 165 276 256 246 252 262 263
16 2 353 137 132 122 128 136 128 149 155 160 165 154 147 148 181 200 211 211 207 203 178 180 178 197 195 196 171 189 199 193 216 237 158 250 205 248 261 268 261 271 269
25 359 6 351 77 111 103 105 115 125 136 146 146 146 158 171 181 171 181 199 214 210 214 201 193 198 193 167 168 168 185 199 338 277 174 263 263 274 317 282 257 266 278
15 355 8 334 53 31 73 101 115 108 111 119 114 121 155 184 197 190 193 207 201 231 224 203 205 187 185 175 161 131 175 164 243 237 188 215 253 258 269 278 288 290 289
2 9 5 29 14 48 44 53 84 102 103 111 133 88 60 57 64 145 191 201 216 232 191 183 216 233 201 203 181 185 163 198 195 317 229 183 241 188 307 254 292 289 295